RSU3004 SGAS-SLVR

Flight info

Callsign RSU3004
Flight time N/A
Altitude 36000
Route OBLUM OBLUM UN420 KIMAL/N0447F370 UL793 OROMU/N0445F360 UL793 XOLAT UM415 TOMUR
Aircraft B737/M-SDE2E3FGHIRWXY/LB1

Departure

Time N/A
Airport Silvio Pettirossi International Airport (SGAS)

Arrival

Time 2026-04-30 22:07
Airport Viru Viru International Airport (SLVR)
Time Latitude Longitude Altitude Speed Heading
2026-04-30 21:56 -18.04163 -62.68431 11137 ft 301 kts 309°
2026-04-30 21:57 -18.02877 -62.70158 10701 ft 299 kts 310°
2026-04-30 21:57 -18.01599 -62.71877 10248 ft 297 kts 310°
2026-04-30 21:57 -18.00348 -62.73560 10066 ft 286 kts 310°
2026-04-30 21:57 -17.99142 -62.75182 9872 ft 277 kts 310°
2026-04-30 21:58 -17.97955 -62.76778 9457 ft 276 kts 310°
2026-04-30 21:58 -17.96778 -62.78359 9081 ft 273 kts 310°
2026-04-30 21:58 -17.95612 -62.79925 8694 ft 271 kts 310°
2026-04-30 21:58 -17.94455 -62.81479 8318 ft 269 kts 310°
2026-04-30 21:59 -17.93321 -62.83002 7949 ft 268 kts 310°
2026-04-30 21:59 -17.92174 -62.84542 7576 ft 266 kts 311°
2026-04-30 21:59 -17.91034 -62.86070 7206 ft 265 kts 311°
2026-04-30 22:00 -17.88761 -62.89121 6436 ft 264 kts 311°
2026-04-30 22:00 -17.86509 -62.92140 5674 ft 262 kts 311°
2026-04-30 22:00 -17.85388 -62.93643 5318 ft 260 kts 311°
2026-04-30 22:01 -17.84299 -62.95104 5182 ft 249 kts 310°
2026-04-30 22:01 -17.83248 -62.96514 5069 ft 238 kts 310°
2026-04-30 22:01 -17.82253 -62.97849 5014 ft 226 kts 311°
2026-04-30 22:01 -17.81307 -62.99117 4922 ft 216 kts 311°
2026-04-30 22:02 -17.80401 -63.00330 4825 ft 207 kts 311°
2026-04-30 22:02 -17.79514 -63.01516 4509 ft 209 kts 311°
2026-04-30 22:02 -17.78632 -63.02696 4253 ft 201 kts 311°
2026-04-30 22:02 -17.77792 -63.03821 3997 ft 190 kts 311°
2026-04-30 22:03 -17.76980 -63.04865 3746 ft 178 kts 318°
2026-04-30 22:03 -17.76050 -63.05647 3556 ft 165 kts 327°
2026-04-30 22:03 -17.75140 -63.06308 3358 ft 155 kts 328°
2026-04-30 22:03 -17.74273 -63.06908 3151 ft 143 kts 328°
2026-04-30 22:04 -17.73475 -63.07451 2994 ft 134 kts 329°
2026-04-30 22:04 -17.72704 -63.07971 2823 ft 131 kts 329°
2026-04-30 22:04 -17.71156 -63.09017 2455 ft 134 kts 328°
2026-04-30 22:05 -17.70370 -63.09549 2287 ft 134 kts 328°
2026-04-30 22:05 -17.69583 -63.10076 2123 ft 135 kts 327°
2026-04-30 22:05 -17.68785 -63.10596 1937 ft 138 kts 327°
2026-04-30 22:05 -17.67978 -63.11151 1750 ft 138 kts 326°
2026-04-30 22:06 -17.67179 -63.11706 1575 ft 138 kts 326°
2026-04-30 22:06 -17.65571 -63.12797 1237 ft 136 kts 327°
2026-04-30 22:06 -17.64836 -63.13295 1231 ft 110 kts 327°
2026-04-30 22:07 -17.64293 -63.13660 1230 ft 75 kts 328°
2026-04-30 22:07 -17.63977 -63.13871 1227 ft 31 kts 327°
2026-04-30 22:07 -17.63903 -63.13962 1227 ft 15 kts 273°
2026-04-30 22:07 -17.63945 -63.14054 1229 ft 14 kts 235°
2026-04-30 22:08 -17.64029 -63.14069 1230 ft 14 kts 152°
2026-04-30 22:08 -17.64107 -63.14018 1230 ft 13 kts 148°
2026-04-30 22:08 -17.64183 -63.13969 1230 ft 13 kts 149°
2026-04-30 22:08 -17.64256 -63.13920 1230 ft 12 kts 147°
2026-04-30 22:09 -17.64328 -63.13872 1230 ft 12 kts 147°
2026-04-30 22:09 -17.64401 -63.13865 1230 ft 12 kts 228°
2026-04-30 22:09 -17.64446 -63.13935 1230 ft 11 kts 236°
2026-04-30 22:09 -17.64490 -63.14003 1230 ft 11 kts 229°
2026-04-30 22:10 -17.64560 -63.14010 1230 ft 11 kts 147°
2026-04-30 22:10 -17.64622 -63.13968 1230 ft 10 kts 148°
2026-04-30 22:10 -17.64684 -63.13953 1230 ft 10 kts 231°
2026-04-30 22:10 -17.64712 -63.14002 1230 ft 0 kts 237°
2026-04-30 22:11 -17.64715 -63.14006 1230 ft 0 kts 237°